Location: Sternwarte_Laufen
(47.9344°N, 12.9346°E)
Time: 03:09:50
(UTC+02:00)

ISS - Pass Details

Date: 07 July 2025
Orbit: 413 x 417 km, 51.6° (Epoch: 12 July)

Event Time Altitude Azimuth Distance (km) Brightness Sun altitude
Rises 23:35:49 0° 244° (WSW) 2,345 0.0 -16.3°
Reaches altitude 10° 23:37:54 10° 244° (WSW) 1,486 -1.0 -16.4°
Maximum altitude 23:41:15 87° 158° (SSE) 421 -3.9 -16.6°
Drops below altitude 10° 23:44:36 10° 67° (ENE) 1,494 -0.9 -16.8°
Sets 23:46:42 0° 67° (ENE) 2,360 0.1 -17.0°
